Satellite-Ground Cal/Val Site Overpasses Predictions

Prediction of Satellite NPP Overpassing Cal/Val Site: Antarctic Dome C

Ground Cal/Val Site Location: Latitude: -75.10, Longitude: 123.35; Satellite-Ground Site NADIR distance within 100 km.

Table of predicted overpasses for the next 14.0 days since TLE Epoch: 8/11/2018
Interval Starting Time Ending Time Minimum Distance Time Minimum Distance (km)
1 08/12/2018 14:54:59 08/12/2018 14:55:28 08/12/2018 14:55:14 20.94
2 08/13/2018 14:36:17 08/13/2018 14:36:32 08/13/2018 14:36:25 86.16
3 08/14/2018 07:37:50 08/14/2018 07:38:18 08/14/2018 07:38:04 33.20
4 08/15/2018 07:19:06 08/15/2018 07:19:25 08/15/2018 07:19:15 76.92
5 08/17/2018 15:01:22 08/17/2018 15:01:46 08/17/2018 15:01:34 57.96
6 08/18/2018 14:42:32 08/18/2018 14:42:57 08/18/2018 14:42:44 51.12
7 08/19/2018 07:44:14 08/19/2018 07:44:35 08/19/2018 07:44:24 68.65
8 08/20/2018 07:25:21 08/20/2018 07:25:48 08/20/2018 07:25:35 39.28
9 08/22/2018 15:07:49 08/22/2018 15:07:57 08/22/2018 15:07:53 95.89


NCC Satellite Cal/Val Overpasses Prediction Service
